This demonstration page uses our WeatherBlox Daily Observations layout. Learn more.

Left ArrowRight Arrow

41.55636, -103.73856

Hourly Observations for October 16, 2018

Temp ( °F °C ) Dew Point ( °F °C ) Humidity (%) Winds ( mph kmh ) Pressure ( in mb ) Visibility ( mi km ) Precip ( " mm )
12:58 am 00:58 Clear 30 -0.9 21 -6.2 68 68 NW 15 24 30.41 1030 10 16 N/A
1:58 am 01:58 Clear 28 -2.2 20 -6.8 71 71 WNW 12 19 30.42 1030 10 16 N/A
2:58 am 02:58 Clear 33 0.4 20 -6.4 61 61 NW 15 24 30.39 1029 10 16 N/A
3:58 am 03:58 Clear 32 -0.1 20 -6.4 63 63 NW 16 26 30.39 1029 10 16 N/A
4:58 am 04:58 Clear 31 -0.5 21 -6 67 67 NW 15 24 30.40 1030 10 16 N/A
5:58 am 05:58 Clear 29 -1.4 22 -5.8 72 72 NW 13 20 30.43 1031 10 16 0.00 0.00
6:58 am 06:58 Clear 29 -1.9 22 -5.8 75 75 WNW 13 20 30.47 1032 10 16 N/A
7:58 am 07:58 Sunny 30 -1.2 22 -5.4 73 73 WNW 10 17 30.48 1032 10 16 N/A
8:58 am 08:58 Sunny 38 3.5 25 -4 58 58 NW 15 24 30.45 1031 10 16 N/A
9:58 am 09:58 Sunny 40 4.5 27 -2.9 59 59 NW 12 19 30.47 1032 10 16 N/A
10:58 am 10:58 Sunny 43 6.2 28 -2 56 56 NW 12 19 30.48 1032 10 16 N/A
11:58 am 11:58 Sunny 46 8 29 -1.9 50 50 NW 10 17 30.47 1032 10 16 N/A
12:58 pm 12:58 Sunny 49 9.7 30 -1.3 47 47 NW 10 17 30.43 1030 10 16 N/A
1:58 pm 13:58 Sunny 51 10.7 31 -0.8 45 45 NNW 13 20 30.42 1030 10 16 N/A
2:58 pm 14:58 Sunny 53 11.5 32 0 45 45 N 12 19 30.38 1029 10 16 N/A
3:58 pm 15:58 Sunny 53 11.7 30 -0.9 42 42 NNW 10 17 30.38 1029 10 16 N/A
4:58 pm 16:58 Sunny 52 11.3 32 -0.1 46 46 WNW 9 15 30.39 1029 10 16 N/A
5:58 pm 17:58 Sunny 47 8.5 33 0.7 58 58 W 7 11 30.41 1030 10 16 N/A
6:58 pm 18:58 Clear 40 4.7 32 0.1 72 72 WNW 9 15 30.45 1031 10 16 N/A
7:58 pm 19:58 Clear 38 3.5 31 -0.7 74 74 W 8 13 30.50 1033 10 16 N/A
8:58 pm 20:58 Clear 37 2.8 30 -0.9 77 77 WNW 9 15 30.49 1033 10 16 N/A
9:58 pm 21:58 Clear 36 2.3 30 -1 79 79 WNW 9 15 30.51 1033 10 16 N/A
10:58 pm 22:58 Clear 34 1.1 29 -1.5 83 83 W 8 13 30.51 1033 10 16 N/A
11:58 pm 23:58 Clear 34 1 28 -2 81 81 NW 7 11 30.50 1033 10 16 N/A

Powered by AerisWeather